Weather History for KCNY - October, 2013

Change the Weather History Date:

Tuesday, October 22, 2013

  Actual Average Record
Temperature  
Mean Temperature 51 °F 51 °F  
Max Temperature 67 °F 65 °F 87 °F (1950)
Min Temperature 34 °F 36 °F 22 °F (1935)
Degree Days  
Heating Degree Days 14 14  
Month to date heating degree days 285 210  
Since 1 July heating degree days 336 268  
Cooling Degree Days 0 0  
Month to date cooling degree days 0 4  
Year to date cooling degree days 1643 1288  
Growing Degree Days 1 (Base 50)    
Moisture  
Dew Point 24 °F    
Average Humidity 39    
Maximum Humidity 59    
Minimum Humidity 18    
Precipitation  
Precipitation 0.00 in 0.02 in 0.73 in (1947)
Month to date precipitation 0.40 0.87  
Year to date precipitation 5.36 7.21  
Sea Level Pressure  
Sea Level Pressure 30.18 in    
Wind  
Wind Speed 2 mph (SW)    
Max Wind Speed 8 mph    
Max Gust Speed 10 mph    
Visibility 10 miles    
Events      
T = Trace of Precipitation, MM = Missing Value Source: NWS Daily Summary

Daily Weather History Graph

Daily Weather History Graph

Search for Another Location

Airport or City:

Trip Planner

Search our weather history database for the weather conditions in past years. The results will help you decide how hot, cold, wet, or windy it might be!

Date:

Astronomy

Oct. 22, 2013 Rise Set
Actual Time 7:35 AM MDT 6:30 PM MDT
Civil Twilight 7:08 AM MDT 6:57 PM MDT
Nautical Twilight 6:37 AM MDT 7:28 PM MDT
Astronomical Twilight 6:06 AM MDT 7:59 PM MDT
Moon 9:15 PM MDT (10/22) 11:05 AM MDT (10/22)
Length of Visible Light 11h 49m
Length of Day
10h 54m
Waning Gibbous, 86% of the Moon is Illuminated
Oct 22
Waning Gibbous
Oct 26
Last Quarter
Nov 3
New
Nov 9
First Quarter
Nov 17
Full

Hourly Weather History & Observations

Time (MDT) Temp. Windchill Dew Point Humidity Pressure Visibility Wind Dir Wind Speed Gust Speed Precip Events Conditions
12:53 AM 42.1 °F - 24.1 °F 49% 30.17 in 10.0 mi Calm Calm - N/A   Clear
1:53 AM 39.0 °F - 21.9 °F 50% 30.18 in 10.0 mi Calm Calm - N/A   Clear
2:53 AM 37.9 °F - 23.0 °F 55% 30.19 in 10.0 mi Calm Calm - N/A   Clear
3:53 AM 36.0 °F 32.1 °F 23.0 °F 59% 30.18 in 10.0 mi WSW 4.6 mph - N/A   Clear
4:53 AM 36.0 °F - 21.9 °F 57% 30.19 in 10.0 mi Calm Calm - N/A   Clear
5:53 AM 39.0 °F - 25.0 °F 57% 30.20 in 10.0 mi Calm Calm - N/A   Clear
6:53 AM 39.0 °F - 26.1 °F 60% 30.23 in 10.0 mi Calm Calm - N/A   Clear
7:53 AM 42.1 °F - 26.1 °F 53% 30.24 in 10.0 mi Calm Calm - N/A   Clear
8:53 AM 46.0 °F - 28.0 °F 50% 30.25 in 10.0 mi Calm Calm - N/A   Clear
9:53 AM 51.1 °F - 27.0 °F 39% 30.27 in 10.0 mi Variable 3.5 mph - N/A   Clear
10:53 AM 55.0 °F - 25.0 °F 31% 30.25 in 10.0 mi Calm Calm - N/A   Clear
11:53 AM 59.0 °F - 26.1 °F 28% 30.24 in 10.0 mi East 3.5 mph - N/A   Clear
12:53 PM 60.1 °F - 26.1 °F 27% 30.21 in 10.0 mi SE 3.5 mph - N/A   Clear
1:53 PM 63.0 °F - 26.1 °F 25% 30.18 in 10.0 mi Variable 5.8 mph - N/A   Clear
2:53 PM 64.9 °F - 25.0 °F 22% 30.15 in 10.0 mi Calm Calm - N/A   Clear
3:53 PM 66.0 °F - 21.9 °F 19% 30.14 in 10.0 mi WSW 3.5 mph - N/A   Clear
4:53 PM 66.9 °F - 21.0 °F 17% 30.13 in 10.0 mi Calm Calm - N/A   Clear
5:53 PM 64.9 °F - 21.9 °F 19% 30.12 in 10.0 mi Calm Calm - N/A   Clear
6:53 PM 57.0 °F - 19.9 °F 24% 30.13 in 10.0 mi North 3.5 mph - N/A   Clear
7:53 PM 50.0 °F - 19.9 °F 31% 30.14 in 10.0 mi Calm Calm - N/A   Clear
8:53 PM 46.0 °F 44.8 °F 21.9 °F 39% 30.15 in 10.0 mi WSW 3.5 mph - N/A   Clear
9:53 PM 45.0 °F 42.6 °F 21.9 °F 40% 30.14 in 10.0 mi WSW 4.6 mph - N/A   Clear
10:53 PM 44.1 °F - 23.0 °F 43% 30.13 in 10.0 mi Calm Calm - N/A   Clear
11:53 PM 41.0 °F - 23.0 °F 49% 30.13 in 10.0 mi Calm Calm - N/A   Clear